Time,TemperatureF,DewpointF,PressureIn,WindDirection,WindDirectionDegrees,WindSpeedMPH,WindSpeedGustMPH,Humidity,HourlyPrecipIn,Conditions,Clouds,dailyrainin,SolarRadiationWatts/m^2,SoftwareType,DateUTC
2013-06-21 00:02:00,81.1,68.2,29.94,South,175,11.0,12.0,65,0.00,,,0.00,0,Wunderground v.1.15,2013-06-21 05:02:00,
2013-06-21 00:07:00,80.9,68.0,29.94,SSE,158,11.0,17.0,65,0.00,,,0.00,0,Wunderground v.1.15,2013-06-21 05:07:00,
2013-06-21 00:14:00,80.7,68.3,29.94,South,177,11.0,11.0,66,0.00,,,0.00,0,Wunderground v.1.15,2013-06-21 05:14:00,
2013-06-21 00:20:00,80.6,68.2,29.94,SSE,157,12.0,16.0,66,0.00,,,0.00,0,Wunderground v.1.15,2013-06-21 05:20:00,
2013-06-21 00:25:00,80.4,68.4,29.94,SSE,161,11.0,14.0,67,0.00,,,0.00,0,Wunderground v.1.15,2013-06-21 05:25:00,
2013-06-21 00:32:00,80.3,68.3,29.95,SSE,164,12.0,14.0,67,0.00,,,0.00,0,Wunderground v.1.15,2013-06-21 05:32:00,
2013-06-21 00:37:00,80.2,68.2,29.95,South,170,11.0,11.0,67,0.00,,,0.00,0,Wunderground v.1.15,2013-06-21 05:37:00,
2013-06-21 00:44:00,80.2,68.2,29.94,SE,144,11.0,12.0,67,0.00,,,0.00,0,Wunderground v.1.15,2013-06-21 05:44:00,
2013-06-21 00:50:00,80.1,68.6,29.94,South,191,11.0,16.0,68,0.00,,,0.00,0,Wunderground v.1.15,2013-06-21 05:50:00,
2013-06-21 00:55:00,80.0,68.5,29.94,SSE,156,11.0,11.0,68,0.00,,,0.00,0,Wunderground v.1.15,2013-06-21 05:55:00,
2013-06-21 01:01:00,80.0,68.5,29.94,SSE,156,12.0,14.0,68,0.00,,,0.00,0,Wunderground v.1.15,2013-06-21 06:01:00,
2013-06-21 01:07:00,80.0,68.5,29.94,South,171,12.0,12.0,68,0.00,,,0.00,0,Wunderground v.1.15,2013-06-21 06:07:00,
2013-06-21 01:14:00,80.0,68.5,29.94,South,170,12.0,12.0,68,0.00,,,0.00,0,Wunderground v.1.15,2013-06-21 06:14:00,
2013-06-21 01:20:00,80.0,68.5,29.94,SSE,154,12.0,16.0,68,0.00,,,0.00,0,Wunderground v.1.15,2013-06-21 06:20:00,
2013-06-21 01:26:00,80.1,68.6,29.94,SSE,166,13.0,17.0,68,0.00,,,0.00,0,Wunderground v.1.15,2013-06-21 06:26:00,
2013-06-21 01:31:00,80.1,68.2,29.94,South,177,13.0,17.0,67,0.00,,,0.00,0,Wunderground v.1.15,2013-06-21 06:31:00,
2013-06-21 01:37:00,80.2,68.2,29.94,SSE,149,14.0,17.0,67,0.00,,,0.00,0,Wunderground v.1.15,2013-06-21 06:37:00,
2013-06-21 01:43:00,80.0,68.1,29.93,SSE,159,13.0,13.0,67,0.00,,,0.00,0,Wunderground v.1.15,2013-06-21 06:43:00,
2013-06-21 01:50:00,79.8,68.3,29.93,South,172,13.0,18.0,68,0.00,,,0.00,0,Wunderground v.1.15,2013-06-21 06:50:00,
2013-06-21 01:55:00,79.7,68.2,29.92,South,180,12.0,18.0,68,0.00,,,0.00,0,Wunderground v.1.15,2013-06-21 06:55:00,
2013-06-21 02:02:00,79.6,67.7,29.93,South,170,12.0,18.0,67,0.00,,,0.00,0,Wunderground v.1.15,2013-06-21 07:02:00,
2013-06-21 02:07:00,79.5,67.6,29.93,SSE,157,12.0,18.0,67,0.00,,,0.00,0,Wunderground v.1.15,2013-06-21 07:07:00,
2013-06-21 02:13:00,79.5,67.6,29.92,SSE,156,13.0,18.0,67,0.00,,,0.00,0,Wunderground v.1.15,2013-06-21 07:13:00,
2013-06-21 02:20:00,79.5,67.6,29.92,South,170,13.0,18.0,67,0.00,,,0.00,0,Wunderground v.1.15,2013-06-21 07:20:00,
2013-06-21 02:25:00,79.5,67.6,29.92,SE,139,12.0,13.0,67,0.00,,,0.00,0,Wunderground v.1.15,2013-06-21 07:25:00,
2013-06-21 02:31:00,79.7,67.3,29.92,SSE,152,13.0,18.0,66,0.00,,,0.00,0,Wunderground v.1.15,2013-06-21 07:31:00,
2013-06-21 02:38:00,79.8,67.4,29.91,SSE,165,13.0,22.0,66,0.00,,,0.00,0,Wunderground v.1.15,2013-06-21 07:38:00,
2013-06-21 02:43:00,79.6,67.2,29.92,SSE,168,13.0,18.0,66,0.00,,,0.00,0,Wunderground v.1.15,2013-06-21 07:43:00,
2013-06-21 02:49:00,79.5,67.6,29.92,South,182,13.0,18.0,67,0.00,,,0.00,0,Wunderground v.1.15,2013-06-21 07:49:00,
2013-06-21 02:56:00,79.3,67.4,29.92,SSE,168,12.0,18.0,67,0.00,,,0.00,0,Wunderground v.1.15,2013-06-21 07:56:00,
2013-06-21 03:01:00,79.2,67.3,29.92,SSE,168,12.0,18.0,67,0.00,,,0.00,0,Wunderground v.1.15,2013-06-21 08:01:00,
2013-06-21 03:07:00,79.4,67.5,29.91,SSW,192,12.0,18.0,67,0.00,,,0.00,0,Wunderground v.1.15,2013-06-21 08:07:00,
2013-06-21 03:14:00,79.4,67.0,29.92,South,170,12.0,21.0,66,0.00,,,0.00,0,Wunderground v.1.15,2013-06-21 08:14:00,
2013-06-21 03:20:00,79.5,67.1,29.91,SSE,155,14.0,23.0,66,0.00,,,0.00,0,Wunderground v.1.15,2013-06-21 08:20:00,
2013-06-21 03:25:00,79.6,67.2,29.91,SSE,147,15.0,18.0,66,0.00,,,0.00,0,Wunderground v.1.15,2013-06-21 08:25:00,
2013-06-21 03:32:00,79.7,67.3,29.91,SSE,168,14.0,18.0,66,0.00,,,0.00,0,Wunderground v.1.15,2013-06-21 08:32:00,
2013-06-21 03:38:00,79.6,66.8,29.91,South,170,13.0,19.0,65,0.00,,,0.00,0,Wunderground v.1.15,2013-06-21 08:38:00,
2013-06-21 03:43:00,79.7,66.9,29.91,South,177,14.0,18.0,65,0.00,,,0.00,0,Wunderground v.1.15,2013-06-21 08:43:00,
2013-06-21 03:50:00,79.5,67.1,29.91,South,179,13.0,18.0,66,0.00,,,0.00,0,Wunderground v.1.15,2013-06-21 08:50:00,
2013-06-21 03:55:00,79.4,67.0,29.91,South,179,13.0,18.0,66,0.00,,,0.00,0,Wunderground v.1.15,2013-06-21 08:55:00,
2013-06-21 04:01:00,79.2,66.9,29.91,SSE,167,12.0,18.0,66,0.00,,,0.00,0,Wunderground v.1.15,2013-06-21 09:01:00,
2013-06-21 04:07:00,79.3,67.0,29.91,SSE,167,13.0,18.0,66,0.00,,,0.00,0,Wunderground v.1.15,2013-06-21 09:07:00,
2013-06-21 04:13:00,79.5,66.7,29.91,South,187,15.0,15.0,65,0.00,,,0.00,0,Wunderground v.1.15,2013-06-21 09:13:00,
2013-06-21 04:20:00,79.4,67.0,29.92,South,172,13.0,18.0,66,0.00,,,0.00,0,Wunderground v.1.15,2013-06-21 09:20:00,
2013-06-21 04:26:00,79.2,66.9,29.92,South,172,11.0,18.0,66,0.00,,,0.00,0,Wunderground v.1.15,2013-06-21 09:26:00,
2013-06-21 04:31:00,79.1,66.8,29.92,SSW,197,12.0,18.0,66,0.00,,,0.00,0,Wunderground v.1.15,2013-06-21 09:31:00,
2013-06-21 04:38:00,79.3,66.5,29.92,South,187,13.0,18.0,65,0.00,,,0.00,0,Wunderground v.1.15,2013-06-21 09:38:00,
2013-06-21 04:43:00,79.2,66.9,29.92,SSE,168,13.0,13.0,66,0.00,,,0.00,0,Wunderground v.1.15,2013-06-21 09:43:00,
2013-06-21 04:49:00,79.1,66.8,29.92,South,187,12.0,18.0,66,0.00,,,0.00,0,Wunderground v.1.15,2013-06-21 09:49:00,
2013-06-21 04:56:00,79.0,66.7,29.92,SSE,167,11.0,18.0,66,0.00,,,0.00,0,Wunderground v.1.15,2013-06-21 09:56:00,
2013-06-21 05:02:00,78.8,66.5,29.92,South,177,10.0,18.0,66,0.00,,,0.00,0,Wunderground v.1.15,2013-06-21 10:02:00,
2013-06-21 05:07:00,78.8,66.5,29.92,South,175,11.0,18.0,66,0.00,,,0.00,0,Wunderground v.1.15,2013-06-21 10:07:00,
2013-06-21 05:14:00,78.6,66.3,29.93,SSE,162,10.0,10.0,66,0.00,,,0.00,0,Wunderground v.1.15,2013-06-21 10:14:00,
2013-06-21 05:19:00,78.4,66.5,29.93,SSW,194,10.0,18.0,67,0.00,,,0.00,0,Wunderground v.1.15,2013-06-21 10:19:00,
2013-06-21 05:26:00,78.2,66.3,29.93,SSE,162,11.0,18.0,67,0.00,,,0.00,0,Wunderground v.1.15,2013-06-21 10:26:00,
2013-06-21 05:31:00,78.1,66.7,29.93,SSE,167,11.0,18.0,68,0.00,,,0.00,0,Wunderground v.1.15,2013-06-21 10:31:00,
2013-06-21 05:38:00,78.0,66.6,29.93,South,172,10.0,18.0,68,0.00,,,0.00,0,Wunderground v.1.15,2013-06-21 10:38:00,
2013-06-21 05:43:00,77.7,66.7,29.93,SSE,150,10.0,18.0,69,0.00,,,0.00,0,Wunderground v.1.15,2013-06-21 10:43:00,
2013-06-21 05:50:00,77.6,66.6,29.93,South,189,10.0,18.0,69,0.00,,,0.00,0,Wunderground v.1.15,2013-06-21 10:50:00,
2013-06-21 05:56:00,77.5,66.5,29.94,South,179,10.0,11.0,69,0.00,,,0.00,0,Wunderground v.1.15,2013-06-21 10:56:00,
2013-06-21 06:02:00,77.3,66.3,29.93,SSE,160,10.0,18.0,69,0.00,,,0.00,0,Wunderground v.1.15,2013-06-21 11:02:00,
2013-06-21 06:07:00,77.2,66.7,29.93,South,178,10.0,18.0,70,0.00,,,0.00,0,Wunderground v.1.15,2013-06-21 11:07:00,
2013-06-21 06:14:00,77.1,66.6,29.93,South,172,10.0,10.0,70,0.00,,,0.00,5,Wunderground v.1.15,2013-06-21 11:14:00,
2013-06-21 06:19:00,77.2,66.7,29.93,SSE,164,11.0,18.0,70,0.00,,,0.00,14,Wunderground v.1.15,2013-06-21 11:19:00,
2013-06-21 06:28:00,77.2,66.7,29.94,SE,139,11.0,18.0,70,0.00,,,0.00,26,Wunderground v.1.15,2013-06-21 11:28:00,
2013-06-21 06:33:00,77.2,66.7,29.94,South,177,11.0,18.0,70,0.00,,,0.00,33,Wunderground v.1.15,2013-06-21 11:33:00,
2013-06-21 06:40:00,77.2,66.7,29.94,South,179,11.0,18.0,70,0.00,,,0.00,46,Wunderground v.1.15,2013-06-21 11:40:00,
2013-06-21 06:45:00,77.3,66.7,29.94,South,179,10.0,18.0,70,0.00,,,0.00,58,Wunderground v.1.15,2013-06-21 11:45:00,
2013-06-21 06:52:00,77.4,66.8,29.94,South,176,10.0,18.0,70,0.00,,,0.00,65,Wunderground v.1.15,2013-06-21 11:52:00,
2013-06-21 06:58:00,77.7,67.1,29.94,South,173,10.0,18.0,70,0.00,,,0.00,76,Wunderground v.1.15,2013-06-21 11:58:00,
2013-06-21 07:03:00,77.8,66.8,29.94,South,172,10.0,18.0,69,0.00,,,0.00,76,Wunderground v.1.15,2013-06-21 12:03:00,
2013-06-21 07:10:00,77.8,66.8,29.94,SSE,162,11.0,18.0,69,0.00,,,0.00,81,Wunderground v.1.15,2013-06-21 12:10:00,
2013-06-21 07:16:00,78.0,67.0,29.94,South,169,10.0,18.0,69,0.00,,,0.00,79,Wunderground v.1.15,2013-06-21 12:16:00,
2013-06-21 07:21:00,78.0,67.0,29.94,SSE,162,10.0,18.0,69,0.00,,,0.00,70,Wunderground v.1.15,2013-06-21 12:21:00,
2013-06-21 07:28:00,77.9,66.9,29.94,South,177,10.0,18.0,69,0.00,,,0.00,72,Wunderground v.1.15,2013-06-21 12:28:00,
2013-06-21 07:34:00,78.0,67.0,29.94,South,169,9.0,18.0,69,0.00,,,0.00,156,Wunderground v.1.15,2013-06-21 12:34:00,
2013-06-21 07:39:00,78.6,67.2,29.94,SSE,164,9.0,18.0,68,0.00,,,0.00,160,Wunderground v.1.15,2013-06-21 12:39:00,
2013-06-21 07:45:00,78.9,67.0,29.94,South,170,9.0,18.0,67,0.00,,,0.00,171,Wunderground v.1.15,2013-06-21 12:45:00,
2013-06-21 07:51:00,79.3,67.0,29.95,South,172,10.0,18.0,66,0.00,,,0.00,183,Wunderground v.1.15,2013-06-21 12:51:00,
2013-06-21 07:57:00,79.7,67.3,29.95,South,170,10.0,18.0,66,0.00,,,0.00,218,Wunderground v.1.15,2013-06-21 12:57:00,
2013-06-21 08:04:00,80.1,67.3,29.95,SSW,199,10.0,18.0,65,0.00,,,0.00,244,Wunderground v.1.15,2013-06-21 13:04:00,
2013-06-21 08:10:00,80.6,67.7,29.95,South,173,10.0,18.0,65,0.00,,,0.00,271,Wunderground v.1.15,2013-06-21 13:10:00,
2013-06-21 08:15:00,80.9,67.6,29.95,SSE,151,11.0,18.0,64,0.00,,,0.00,330,Wunderground v.1.15,2013-06-21 13:15:00,
2013-06-21 08:21:00,81.5,67.7,29.95,South,179,11.0,18.0,63,0.00,,,0.00,299,Wunderground v.1.15,2013-06-21 13:21:00,
2013-06-21 08:27:00,81.9,68.1,29.95,SSE,166,11.0,18.0,63,0.00,,,0.00,357,Wunderground v.1.15,2013-06-21 13:27:00,
2013-06-21 08:34:00,82.4,68.1,29.95,SSW,193,11.0,11.0,62,0.00,,,0.00,411,Wunderground v.1.15,2013-06-21 13:34:00,
2013-06-21 08:40:00,82.8,68.4,29.95,SSE,166,11.0,19.0,62,0.00,,,0.00,343,Wunderground v.1.15,2013-06-21 13:40:00,
2013-06-21 08:45:00,82.6,67.8,29.95,SSW,213,11.0,18.0,61,0.00,,,0.00,290,Wunderground v.1.15,2013-06-21 13:45:00,
2013-06-21 08:52:00,82.5,67.7,29.95,SW,214,10.0,18.0,61,0.00,,,0.00,294,Wunderground v.1.15,2013-06-21 13:52:00,
2013-06-21 08:57:00,82.4,67.6,29.95,South,188,11.0,18.0,61,0.00,,,0.00,251,Wunderground v.1.15,2013-06-21 13:57:00,
2013-06-21 09:04:00,82.4,67.6,29.96,South,173,10.0,10.0,61,0.00,,,0.00,272,Wunderground v.1.15,2013-06-21 14:04:00,
2013-06-21 09:10:00,82.6,67.8,29.96,WSW,238,10.0,18.0,61,0.00,,,0.00,323,Wunderground v.1.15,2013-06-21 14:10:00,
2013-06-21 09:15:00,83.1,67.8,29.96,South,174,10.0,18.0,60,0.00,,,0.00,345,Wunderground v.1.15,2013-06-21 14:15:00,
2013-06-21 09:22:00,83.6,68.2,29.96,SSW,205,10.0,18.0,60,0.00,,,0.00,327,Wunderground v.1.15,2013-06-21 14:22:00,
2013-06-21 09:27:00,83.6,68.2,29.95,SSE,165,10.0,16.0,60,0.00,,,0.00,278,Wunderground v.1.15,2013-06-21 14:27:00,
2013-06-21 09:34:00,83.8,68.4,29.95,South,185,11.0,11.0,60,0.00,,,0.00,362,Wunderground v.1.15,2013-06-21 14:34:00,
2013-06-21 09:40:00,84.4,68.0,29.95,South,189,10.0,18.0,58,0.00,,,0.00,427,Wunderground v.1.15,2013-06-21 14:40:00,
2013-06-21 09:46:00,85.3,68.3,29.95,SSW,197,11.0,18.0,57,0.00,,,0.00,464,Wunderground v.1.15,2013-06-21 14:46:00,
2013-06-21 09:52:00,85.8,68.3,29.95,South,188,11.0,18.0,56,0.00,,,0.00,260,Wunderground v.1.15,2013-06-21 14:52:00,
2013-06-21 09:57:00,86.0,68.5,29.95,SSW,198,11.0,18.0,56,0.00,,,0.00,633,Wunderground v.1.15,2013-06-21 14:57:00,
2013-06-21 10:04:00,87.0,69.4,29.96,South,191,12.0,12.0,56,0.00,,,0.00,654,Wunderground v.1.15,2013-06-21 15:04:00,
2013-06-21 10:10:00,87.5,68.8,29.96,South,189,12.0,18.0,54,0.00,,,0.00,571,Wunderground v.1.15,2013-06-21 15:10:00,
2013-06-21 10:15:00,87.8,69.6,29.96,SSW,194,12.0,18.0,55,0.00,,,0.00,642,Wunderground v.1.15,2013-06-21 15:15:00,
2013-06-21 10:22:00,88.7,69.4,29.96,South,175,11.0,18.0,53,0.00,,,0.00,640,Wunderground v.1.15,2013-06-21 15:22:00,
2013-06-21 10:27:00,88.6,68.7,29.96,South,186,12.0,22.0,52,0.00,,,0.00,673,Wunderground v.1.15,2013-06-21 15:27:00,
2013-06-21 10:33:00,88.6,68.7,29.96,SSE,156,13.0,18.0,52,0.00,,,0.00,450,Wunderground v.1.15,2013-06-21 15:33:00,
2013-06-21 10:40:00,88.6,68.7,29.96,South,178,12.0,20.0,52,0.00,,,0.00,482,Wunderground v.1.15,2013-06-21 15:40:00,
2013-06-21 10:45:00,88.6,68.7,29.96,SW,224,13.0,18.0,52,0.00,,,0.00,512,Wunderground v.1.15,2013-06-21 15:45:00,
2013-06-21 10:52:00,89.1,68.6,29.96,SSW,201,14.0,21.0,51,0.00,,,0.00,687,Wunderground v.1.15,2013-06-21 15:52:00,
2013-06-21 10:58:00,89.7,68.6,29.96,SSW,202,10.0,18.0,50,0.00,,,0.00,522,Wunderground v.1.15,2013-06-21 15:58:00,
2013-06-21 11:04:00,89.5,69.5,29.96,South,183,11.0,11.0,52,0.00,,,0.00,687,Wunderground v.1.15,2013-06-21 16:04:00,
2013-06-21 11:09:00,90.6,70.0,29.96,SSE,166,12.0,18.0,51,0.00,,,0.00,668,Wunderground v.1.15,2013-06-21 16:09:00,
2013-06-21 11:15:00,90.8,69.0,29.96,SSW,202,13.0,19.0,49,0.00,,,0.00,712,Wunderground v.1.15,2013-06-21 16:15:00,
2013-06-21 11:22:00,90.6,68.8,29.96,SSE,157,13.0,19.0,49,0.00,,,0.00,580,Wunderground v.1.15,2013-06-21 16:22:00,
2013-06-21 11:27:00,90.5,69.3,29.96,SSW,195,12.0,18.0,50,0.00,,,0.00,673,Wunderground v.1.15,2013-06-21 16:27:00,
2013-06-21 11:34:00,91.2,70.5,29.96,SSW,195,13.0,13.0,51,0.00,,,0.00,656,Wunderground v.1.15,2013-06-21 16:34:00,
2013-06-21 11:40:00,90.9,68.5,29.96,SSE,161,14.0,18.0,48,0.00,,,0.00,431,Wunderground v.1.15,2013-06-21 16:40:00,
2013-06-21 11:45:00,90.6,68.8,29.96,SW,214,13.0,20.0,49,0.00,,,0.00,724,Wunderground v.1.15,2013-06-21 16:45:00,
2013-06-21 11:51:00,91.2,69.4,29.96,South,185,13.0,20.0,49,0.00,,,0.00,724,Wunderground v.1.15,2013-06-21 16:51:00,
2013-06-21 11:58:00,91.0,68.6,29.96,SW,216,13.0,22.0,48,0.00,,,0.00,476,Wunderground v.1.15,2013-06-21 16:58:00,
2013-06-21 12:04:00,90.3,68.5,29.96,SSW,206,13.0,13.0,49,0.00,,,0.00,490,Wunderground v.1.15,2013-06-21 17:04:00,
2013-06-21 12:11:00,90.5,68.7,29.96,South,172,12.0,18.0,49,0.00,,,0.00,564,Wunderground v.1.15,2013-06-21 17:11:00,
2013-06-21 12:18:00,91.2,68.8,29.96,South,185,12.0,18.0,48,0.00,,,0.00,587,Wunderground v.1.15,2013-06-21 17:18:00,
2013-06-21 12:23:00,91.2,68.2,29.96,South,177,13.0,13.0,47,0.00,,,0.00,427,Wunderground v.1.15,2013-06-21 17:23:00,
2013-06-21 12:29:00,91.8,69.3,29.95,SSE,164,12.0,18.0,48,0.00,,,0.00,710,Wunderground v.1.15,2013-06-21 17:29:00,
2013-06-21 12:36:00,91.7,68.6,29.95,SSW,202,12.0,18.0,47,0.00,,,0.00,415,Wunderground v.1.15,2013-06-21 17:36:00,
2013-06-21 12:42:00,91.0,68.6,29.95,South,177,13.0,18.0,48,0.00,,,0.00,418,Wunderground v.1.15,2013-06-21 17:42:00,
2013-06-21 12:45:00,91.0,68.6,29.95,South,181,13.0,14.0,48,0.00,,,0.00,494,Wunderground v.1.15,2013-06-21 17:45:00,
2013-06-21 12:47:00,91.2,69.4,29.95,SSE,164,12.0,18.0,49,0.00,,,0.00,940,Wunderground v.1.15,2013-06-21 17:47:00,
2013-06-21 12:50:00,91.8,69.3,29.95,South,178,12.0,18.0,48,0.00,,,0.00,916,Wunderground v.1.15,2013-06-21 17:50:00,
2013-06-21 12:52:00,92.5,69.3,29.95,SSW,194,12.0,18.0,47,0.00,,,0.00,916,Wunderground v.1.15,2013-06-21 17:52:00,
2013-06-21 12:58:00,93.4,70.2,29.95,South,189,13.0,18.0,47,0.00,,,0.00,631,Wunderground v.1.15,2013-06-21 17:58:00,
2013-06-21 13:04:00,93.0,68.5,29.94,SSW,193,13.0,13.0,45,0.00,,,0.00,394,Wunderground v.1.15,2013-06-21 18:04:00,
2013-06-21 13:10:00,92.7,70.1,29.94,South,181,13.0,21.0,48,0.00,,,0.00,749,Wunderground v.1.15,2013-06-21 18:10:00,
2013-06-21 13:16:00,94.3,71.0,29.94,South,184,14.0,23.0,47,0.00,,,0.00,986,Wunderground v.1.15,2013-06-21 18:16:00,
2013-06-21 13:21:00,94.9,69.6,29.94,SSE,161,14.0,23.0,44,0.00,,,0.00,837,Wunderground v.1.15,2013-06-21 18:21:00,
2013-06-21 13:23:00,94.9,71.5,29.94,South,181,13.0,13.0,47,0.00,,,0.00,724,Wunderground v.1.15,2013-06-21 18:23:00,
2013-06-21 13:26:00,94.8,69.5,29.94,SSE,167,13.0,18.0,44,0.00,,,0.00,853,Wunderground v.1.15,2013-06-21 18:26:00,
2013-06-21 13:28:00,94.7,70.1,29.94,SW,218,13.0,18.0,45,0.00,,,0.00,756,Wunderground v.1.15,2013-06-21 18:28:00,
2013-06-21 13:33:00,94.3,68.4,29.94,SSE,166,14.0,18.0,43,0.00,,,0.00,814,Wunderground v.1.15,2013-06-21 18:33:00,
2013-06-21 13:35:00,94.5,69.2,29.94,South,187,15.0,21.0,44,0.00,,,0.00,814,Wunderground v.1.15,2013-06-21 18:35:00,
2013-06-21 13:41:00,95.4,69.4,29.94,SSE,165,15.0,21.0,43,0.00,,,0.00,1009,Wunderground v.1.15,2013-06-21 18:41:00,
2013-06-21 13:46:00,95.4,67.2,29.93,SSW,209,14.0,18.0,40,0.00,,,0.00,819,Wunderground v.1.15,2013-06-21 18:46:00,
2013-06-21 13:48:00,95.3,69.3,29.94,SSW,210,14.0,18.0,43,0.00,,,0.00,846,Wunderground v.1.15,2013-06-21 18:48:00,
2013-06-21 13:51:00,95.4,69.4,29.94,South,187,14.0,21.0,43,0.00,,,0.00,907,Wunderground v.1.15,2013-06-21 18:51:00,
2013-06-21 13:53:00,95.5,68.1,29.94,SSE,168,15.0,15.0,41,0.00,,,0.00,881,Wunderground v.1.15,2013-06-21 18:53:00,
2013-06-21 14:00:00,94.5,68.5,29.94,South,191,14.0,19.0,43,0.00,,,0.00,682,Wunderground v.1.15,2013-06-21 19:00:00,
2013-06-21 14:06:00,94.5,67.9,29.93,SSW,210,16.0,19.0,42,0.00,,,0.00,861,Wunderground v.1.15,2013-06-21 19:06:00,
2013-06-21 14:14:00,95.4,67.2,29.93,South,179,15.0,18.0,40,0.00,,,0.00,940,Wunderground v.1.15,2013-06-21 19:14:00,
2013-06-21 14:20:00,96.1,67.9,29.93,South,189,16.0,18.0,40,0.00,,,0.00,932,Wunderground v.1.15,2013-06-21 19:20:00,
2013-06-21 14:26:00,96.3,68.1,29.92,SSW,194,16.0,18.0,40,0.00,,,0.00,949,Wunderground v.1.15,2013-06-21 19:26:00,
2013-06-21 14:31:00,96.3,69.5,29.92,SSE,162,17.0,26.0,42,0.00,,,0.00,874,Wunderground v.1.15,2013-06-21 19:31:00,
2013-06-21 14:37:00,96.5,66.7,29.93,South,183,16.0,18.0,38,0.00,,,0.00,1002,Wunderground v.1.15,2013-06-21 19:37:00,
2013-06-21 14:43:00,95.7,68.9,29.92,SSW,211,17.0,22.0,42,0.00,,,0.00,533,Wunderground v.1.15,2013-06-21 19:43:00,
2013-06-21 14:46:00,95.5,68.1,29.92,SE,144,17.0,22.0,41,0.00,,,0.00,629,Wunderground v.1.15,2013-06-21 19:46:00,
2013-06-21 14:51:00,95.5,69.4,29.92,South,172,16.0,22.0,43,0.00,,,0.00,838,Wunderground v.1.15,2013-06-21 19:51:00,
2013-06-21 14:57:00,95.5,68.8,29.92,SSE,166,15.0,22.0,42,0.00,,,0.00,476,Wunderground v.1.15,2013-06-21 19:57:00,
2013-06-21 15:04:00,94.9,68.2,29.92,SSE,163,15.0,15.0,42,0.00,,,0.00,617,Wunderground v.1.15,2013-06-21 20:04:00,
2013-06-21 15:09:00,95.2,69.2,29.92,South,178,14.0,21.0,43,0.00,,,0.00,680,Wunderground v.1.15,2013-06-21 20:09:00,
2013-06-21 15:12:00,95.3,67.2,29.92,SSE,152,13.0,21.0,40,0.00,,,0.00,715,Wunderground v.1.15,2013-06-21 20:12:00,
2013-06-21 15:17:00,95.3,69.3,29.91,South,190,15.0,18.0,43,0.00,,,0.00,673,Wunderground v.1.15,2013-06-21 20:17:00,
2013-06-21 15:23:00,95.0,68.3,29.91,SSE,164,14.0,14.0,42,0.00,,,0.00,501,Wunderground v.1.15,2013-06-21 20:23:00,
2013-06-21 15:29:00,94.8,67.4,29.91,South,174,13.0,18.0,41,0.00,,,0.00,452,Wunderground v.1.15,2013-06-21 20:29:00,
2013-06-21 15:36:00,94.1,68.2,29.91,SSE,165,14.0,26.0,43,0.00,,,0.00,499,Wunderground v.1.15,2013-06-21 20:36:00,
2013-06-21 15:41:00,93.6,67.7,29.91,SSE,166,15.0,26.0,43,0.00,,,0.00,369,Wunderground v.1.15,2013-06-21 20:41:00,
2013-06-21 15:50:00,93.3,67.5,29.90,South,182,15.0,22.0,43,0.00,,,0.00,327,Wunderground v.1.15,2013-06-21 20:50:00,
2013-06-21 15:56:00,93.3,66.8,29.90,SSE,164,18.0,18.0,42,0.00,,,0.00,345,Wunderground v.1.15,2013-06-21 20:56:00,
2013-06-21 16:01:00,93.4,68.2,29.90,SSE,160,16.0,18.0,44,0.00,,,0.00,355,Wunderground v.1.15,2013-06-21 21:01:00,
2013-06-21 16:05:00,93.7,67.1,29.90,SSW,200,17.0,25.0,42,0.00,,,0.00,403,Wunderground v.1.15,2013-06-21 21:05:00,
2013-06-21 16:11:00,93.9,68.7,29.89,South,173,19.0,25.0,44,0.00,,,0.00,645,Wunderground v.1.15,2013-06-21 21:11:00,
2013-06-21 16:17:00,95.1,68.4,29.89,SSE,168,19.0,25.0,42,0.00,,,0.00,645,Wunderground v.1.15,2013-06-21 21:17:00,
2013-06-21 16:24:00,95.2,68.5,29.88,South,174,19.0,19.0,42,0.00,,,0.00,589,Wunderground v.1.15,2013-06-21 21:24:00,
2013-06-21 16:29:00,95.0,69.0,29.88,South,177,17.0,19.0,43,0.00,,,0.00,700,Wunderground v.1.15,2013-06-21 21:29:00,
2013-06-21 16:36:00,95.5,68.8,29.88,South,175,15.0,18.0,42,0.00,,,0.00,650,Wunderground v.1.15,2013-06-21 21:36:00,
2013-06-21 16:41:00,94.7,68.0,29.88,SSE,150,18.0,26.0,42,0.00,,,0.00,288,Wunderground v.1.15,2013-06-21 21:41:00,
2013-06-21 16:50:00,94.5,68.5,29.87,SSE,149,20.0,26.0,43,0.00,,,0.00,735,Wunderground v.1.15,2013-06-21 21:50:00,
2013-06-21 16:55:00,94.9,69.6,29.88,SSE,155,19.0,28.0,44,0.00,,,0.00,454,Wunderground v.1.15,2013-06-21 21:55:00,
2013-06-21 17:01:00,94.3,68.4,29.88,South,187,19.0,28.0,43,0.00,,,0.00,448,Wunderground v.1.15,2013-06-21 22:01:00,
2013-06-21 17:08:00,94.1,69.5,29.88,SSE,154,19.0,19.0,45,0.00,,,0.00,573,Wunderground v.1.15,2013-06-21 22:08:00,
2013-06-21 17:13:00,94.5,70.5,29.88,South,174,17.0,17.0,46,0.00,,,0.00,666,Wunderground v.1.15,2013-06-21 22:13:00,
2013-06-21 17:20:00,94.4,70.4,29.88,SSE,164,17.0,29.0,46,0.00,,,0.00,606,Wunderground v.1.15,2013-06-21 22:20:00,
2013-06-21 17:25:00,94.2,69.6,29.89,SSE,168,18.0,22.0,45,0.00,,,0.00,591,Wunderground v.1.15,2013-06-21 22:25:00,
2013-06-21 17:31:00,94.1,70.2,29.89,South,179,17.0,22.0,46,0.00,,,0.00,612,Wunderground v.1.15,2013-06-21 22:31:00,
2013-06-21 17:38:00,93.3,70.1,29.89,SSE,152,17.0,19.0,47,0.00,,,0.00,381,Wunderground v.1.15,2013-06-21 22:38:00,
2013-06-21 17:43:00,92.0,70.1,29.89,SSE,162,17.0,17.0,49,0.00,,,0.00,107,Wunderground v.1.15,2013-06-21 22:43:00,
2013-06-21 17:49:00,91.3,70.6,29.89,South,179,15.0,18.0,51,0.00,,,0.00,431,Wunderground v.1.15,2013-06-21 22:49:00,
2013-06-21 17:55:00,91.9,70.6,29.89,SSE,164,15.0,18.0,50,0.00,,,0.00,357,Wunderground v.1.15,2013-06-21 22:55:00,
2013-06-21 18:01:00,91.7,70.4,29.89,South,187,15.0,21.0,50,0.00,,,0.00,394,Wunderground v.1.15,2013-06-21 23:01:00,
2013-06-21 18:08:00,91.2,70.5,29.89,South,190,16.0,18.0,51,0.00,,,0.00,258,Wunderground v.1.15,2013-06-21 23:08:00,
2013-06-21 18:14:00,90.4,70.9,29.90,South,170,16.0,16.0,53,0.00,,,0.00,172,Wunderground v.1.15,2013-06-21 23:14:00,
2013-06-21 18:19:00,90.4,70.9,29.90,SSW,201,14.0,18.0,53,0.00,,,0.00,155,Wunderground v.1.15,2013-06-21 23:19:00,
2013-06-21 18:26:00,90.0,71.1,29.89,South,171,13.0,18.0,54,0.00,,,0.00,258,Wunderground v.1.15,2013-06-21 23:26:00,
2013-06-21 18:31:00,90.1,71.2,29.90,SSW,201,14.0,27.0,54,0.00,,,0.00,338,Wunderground v.1.15,2013-06-21 23:31:00,
2013-06-21 18:38:00,89.9,70.5,29.90,South,170,15.0,24.0,53,0.00,,,0.00,104,Wunderground v.1.15,2013-06-21 23:38:00,
2013-06-21 18:44:00,89.6,70.8,29.90,SSE,152,15.0,15.0,54,0.00,,,0.00,322,Wunderground v.1.15,2013-06-21 23:44:00,
2013-06-21 18:49:00,89.8,70.4,29.90,SSE,166,13.0,19.0,53,0.00,,,0.00,285,Wunderground v.1.15,2013-06-21 23:49:00,
2013-06-21 18:55:00,89.8,70.9,29.90,SSE,156,13.0,18.0,54,0.00,,,0.00,174,Wunderground v.1.15,2013-06-21 23:55:00,
2013-06-21 19:01:00,89.3,70.5,29.90,South,178,13.0,18.0,54,0.00,,,0.00,130,Wunderground v.1.15,2013-06-22 00:01:00,
2013-06-21 19:08:00,88.6,70.4,29.90,South,179,12.0,18.0,55,0.00,,,0.00,91,Wunderground v.1.15,2013-06-22 00:08:00,
2013-06-21 19:13:00,88.2,70.5,29.91,SSE,163,11.0,18.0,56,0.00,,,0.00,105,Wunderground v.1.15,2013-06-22 00:13:00,
2013-06-21 19:19:00,88.2,70.5,29.91,SSE,154,9.0,18.0,56,0.00,,,0.00,104,Wunderground v.1.15,2013-06-22 00:19:00,
2013-06-21 19:26:00,88.3,70.6,29.90,South,169,9.0,18.0,56,0.00,,,0.00,139,Wunderground v.1.15,2013-06-22 00:26:00,
2013-06-21 19:31:00,88.4,70.7,29.90,SE,131,10.0,18.0,56,0.00,,,0.00,202,Wunderground v.1.15,2013-06-22 00:31:00,
2013-06-21 19:38:00,88.7,70.5,29.90,SSE,166,10.0,18.0,55,0.00,,,0.00,186,Wunderground v.1.15,2013-06-22 00:38:00,
2013-06-21 19:43:00,88.8,70.5,29.91,SSW,195,12.0,18.0,55,0.00,,,0.00,190,Wunderground v.1.15,2013-06-22 00:43:00,
2013-06-21 19:49:00,89.0,70.2,29.90,South,187,14.0,18.0,54,0.00,,,0.00,151,Wunderground v.1.15,2013-06-22 00:49:00,
2013-06-21 19:56:00,88.8,70.0,29.91,South,180,13.0,13.0,54,0.00,,,0.00,95,Wunderground v.1.15,2013-06-22 00:56:00,
2013-06-21 20:01:00,88.5,70.3,29.91,South,178,13.0,18.0,55,0.00,,,0.00,81,Wunderground v.1.15,2013-06-22 01:01:00,
2013-06-21 20:07:00,88.4,70.7,29.90,South,170,13.0,18.0,56,0.00,,,0.00,74,Wunderground v.1.15,2013-06-22 01:07:00,
2013-06-21 20:14:00,88.1,70.4,29.90,South,174,12.0,12.0,56,0.00,,,0.00,60,Wunderground v.1.15,2013-06-22 01:14:00,
2013-06-21 20:19:00,88.0,70.9,29.90,SSE,168,12.0,18.0,57,0.00,,,0.00,49,Wunderground v.1.15,2013-06-22 01:19:00,
2013-06-21 20:26:00,87.6,71.0,29.91,SSE,162,11.0,15.0,58,0.00,,,0.00,35,Wunderground v.1.15,2013-06-22 01:26:00,
2013-06-21 20:31:00,87.3,71.2,29.91,SSE,156,9.0,18.0,59,0.00,,,0.00,26,Wunderground v.1.15,2013-06-22 01:31:00,
2013-06-21 20:37:00,87.0,70.9,29.91,SSE,168,9.0,18.0,59,0.00,,,0.00,18,Wunderground v.1.15,2013-06-22 01:37:00,
2013-06-21 20:43:00,86.8,71.2,29.91,SSE,168,11.0,11.0,60,0.00,,,0.00,11,Wunderground v.1.15,2013-06-22 01:43:00,
2013-06-21 20:50:00,86.7,71.2,29.91,SSW,201,11.0,18.0,60,0.00,,,0.00,5,Wunderground v.1.15,2013-06-22 01:50:00,
2013-06-21 20:55:00,86.3,70.8,29.90,SE,141,12.0,18.0,60,0.00,,,0.00,0,Wunderground v.1.15,2013-06-22 01:55:00,
2013-06-21 21:02:00,86.0,70.5,29.91,South,173,13.0,18.0,60,0.00,,,0.00,0,Wunderground v.1.15,2013-06-22 02:02:00,
2013-06-21 21:07:00,85.9,70.9,29.90,SSE,158,12.0,18.0,61,0.00,,,0.00,0,Wunderground v.1.15,2013-06-22 02:07:00,
2013-06-21 21:13:00,85.5,70.5,29.91,South,184,10.0,18.0,61,0.00,,,0.00,0,Wunderground v.1.15,2013-06-22 02:13:00,
2013-06-21 21:20:00,85.2,70.7,29.91,South,170,10.0,18.0,62,0.00,,,0.00,0,Wunderground v.1.15,2013-06-22 02:20:00,
2013-06-21 21:25:00,85.2,70.7,29.91,SSE,156,10.0,12.0,62,0.00,,,0.00,0,Wunderground v.1.15,2013-06-22 02:25:00,
2013-06-21 21:32:00,85.1,70.6,29.91,SSE,156,12.0,18.0,62,0.00,,,0.00,0,Wunderground v.1.15,2013-06-22 02:32:00,
2013-06-21 21:37:00,85.1,70.6,29.91,SSE,159,11.0,18.0,62,0.00,,,0.00,0,Wunderground v.1.15,2013-06-22 02:37:00,
2013-06-21 21:44:00,84.9,70.4,29.91,SSE,164,11.0,11.0,62,0.00,,,0.00,0,Wunderground v.1.15,2013-06-22 02:44:00,
2013-06-21 21:49:00,84.6,70.6,29.91,SSE,156,12.0,18.0,63,0.00,,,0.00,0,Wunderground v.1.15,2013-06-22 02:49:00,
2013-06-21 21:55:00,84.5,70.5,29.92,SSE,156,13.0,18.0,63,0.00,,,0.00,0,Wunderground v.1.15,2013-06-22 02:55:00,
2013-06-21 22:02:00,84.3,70.3,29.92,South,175,13.0,18.0,63,0.00,,,0.00,0,Wunderground v.1.15,2013-06-22 03:02:00,
2013-06-21 22:08:00,84.0,70.0,29.92,SSE,163,13.0,18.0,63,0.00,,,0.00,0,Wunderground v.1.15,2013-06-22 03:08:00,
2013-06-21 22:13:00,84.1,70.1,29.92,SSE,167,13.0,18.0,63,0.00,,,0.00,0,Wunderground v.1.15,2013-06-22 03:13:00,
2013-06-21 22:20:00,83.9,70.0,29.93,SSE,160,12.0,19.0,63,0.00,,,0.00,0,Wunderground v.1.15,2013-06-22 03:20:00,
2013-06-21 22:25:00,83.7,69.8,29.93,SSE,164,13.0,18.0,63,0.00,,,0.00,0,Wunderground v.1.15,2013-06-22 03:25:00,
2013-06-21 22:32:00,83.4,69.9,29.93,South,182,14.0,18.0,64,0.00,,,0.00,0,Wunderground v.1.15,2013-06-22 03:32:00,
2013-06-21 22:37:00,83.2,69.8,29.94,SSE,152,14.0,21.0,64,0.00,,,0.00,0,Wunderground v.1.15,2013-06-22 03:37:00,
2013-06-21 22:44:00,83.1,69.2,29.93,SSE,164,13.0,13.0,63,0.00,,,0.00,0,Wunderground v.1.15,2013-06-22 03:44:00,
2013-06-21 22:49:00,82.9,69.0,29.93,SSE,168,12.0,18.0,63,0.00,,,0.00,0,Wunderground v.1.15,2013-06-22 03:49:00,
2013-06-21 22:55:00,82.7,68.8,29.94,SSE,166,13.0,13.0,63,0.00,,,0.00,0,Wunderground v.1.15,2013-06-22 03:55:00,
2013-06-21 23:01:00,82.6,68.7,29.94,SSE,166,12.0,18.0,63,0.00,,,0.00,0,Wunderground v.1.15,2013-06-22 04:01:00,
2013-06-21 23:04:00,82.5,68.6,29.94,SSE,160,12.0,12.0,63,0.00,,,0.00,0,Wunderground v.1.15,2013-06-22 04:04:00,
2013-06-21 23:08:00,82.5,68.6,29.94,South,175,11.0,18.0,63,0.00,,,0.00,0,Wunderground v.1.15,2013-06-22 04:08:00,
2013-06-21 23:13:00,82.3,68.9,29.94,SSE,163,11.0,11.0,64,0.00,,,0.00,0,Wunderground v.1.15,2013-06-22 04:13:00,
2013-06-21 23:20:00,82.2,68.8,29.95,South,185,11.0,18.0,64,0.00,,,0.00,0,Wunderground v.1.15,2013-06-22 04:20:00,
2013-06-21 23:24:00,82.1,68.7,29.95,South,189,11.0,11.0,64,0.00,,,0.00,0,Wunderground v.1.15,2013-06-22 04:24:00,
2013-06-21 23:29:00,82.0,68.6,29.95,SSW,193,13.0,18.0,64,0.00,,,0.00,0,Wunderground v.1.15,2013-06-22 04:29:00,
2013-06-21 23:35:00,81.9,68.5,29.95,SSE,167,12.0,18.0,64,0.00,,,0.00,0,Wunderground v.1.15,2013-06-22 04:35:00,
2013-06-21 23:41:00,81.7,68.8,29.94,South,169,12.0,18.0,65,0.00,,,0.00,0,Wunderground v.1.15,2013-06-22 04:41:00,
2013-06-21 23:48:00,81.4,68.5,29.95,SSE,147,11.0,18.0,65,0.00,,,0.00,0,Wunderground v.1.15,2013-06-22 04:48:00,
2013-06-21 23:53:00,81.3,68.4,29.95,South,176,12.0,18.0,65,0.00,,,0.00,0,Wunderground v.1.15,2013-06-22 04:53:00,